Regional Weather Roundup
Issued by NWS

Home | Current Version | Previous Version | Graphics & Text | Print | Product List | Glossary On
Versions: 1 2 3 4 5 6 7 8 9 10 11 12 13 14 15 16 17 18 19 20 21 22 23 24 25 26 27 28 29 30 31 32 33 34 35 36 37 38 39 40 41 42 43 44 45 46 47 48 49 50
000
ASUS43 KMKX 210921
RWRWI

WISCONSIN REGIONAL WEATHER ROUNDUP
NATIONAL WEATHER SERVICE MILWAUKEE/SULLIVAN WI
400 AM CDT TUE OCT 21 2014

NOTE: "FAIR" INDICATES FEW OR NO CLOUDS BELOW 12,000 FEET WITH NO
SIGNIFICANT WEATHER AND/OR OBSTRUCTIONS TO VISIBILITY.

WIZ001-002-006>008-014>016-023>028-211000-
NORTHWEST WISCONSIN

CITY           SKY/WX    TMP DP  RH WIND       PRES   REMARKS
SUPERIOR ARPT  CLOUDY    44  39  82 E5        30.18S
ASHLAND        CLOUDY    43  36  76 NE8       30.19R
HAYWARD        CLOUDY    44  36  73 NE9       30.16R
SIREN          CLOUDY    36  33  90 CALM      30.15S
CUMBERLAND     CLOUDY    43  36  75 E3        30.14S
RICE LAKE      CLOUDY    46  37  70 NE5       30.16R
CHETEK         CLOUDY    46  39  77 NE6       30.14S
LADYSMITH      PTCLDY    40  35  81 NE5       30.17R
EAU CLAIRE     FOG       34  32  92 CALM      30.14R VSB 1/2
MENOMONIE      CLEAR     37  36  95 CALM      30.14R
NEW RICHMOND   FOG       33  33 100 CALM      30.15R VSB 3/4
OSCEOLA        MOCLDY    32  32 100 CALM      30.18R
$$

WIZ003>005-009-010-017-018-211000-
NORTH CENTRAL WISCONSIN

CITY           SKY/WX    TMP DP  RH WIND       PRES   REMARKS
MANITOWISH WTR DRIZZLE   38  38 100 N6        30.14R WCI  33
ARBOR VITAE    CLOUDY    39  37  91 N5        30.14R
WOODRUFF       CLOUDY    39  37  91 N5        30.14R
RHINELANDER    CLOUDY    39  34  82 N5        30.13R
EAGLE RIVER    CLOUDY    38  36  91 N6        30.13R WCI  34
LAND O LAKES   DRIZZLE   38  37  94 NE5       30.14R WCI  35
PHILLIPS       CLOUDY    40  34  80 NE9       30.14R WCI  34
TOMAHAWK       CLOUDY    40  34  78 CALM      30.14R
MEDFORD        CLEAR     37  33  88 N7        30.13R WCI  31
MERRILL        CLOUDY    41  35  78 NE9G16    30.13R
$$

WIZ029-030-035-036-043>047-211000-
CENTRAL WISCONSIN

CITY           SKY/WX    TMP DP  RH WIND       PRES   REMARKS
WAUSAU         CLOUDY    42  35  76 N7G18     30.11R
MOSINEE        MOCLDY    37  36  93 N8        30.13R WCI  31
MARSHFIELD     CLEAR     41  35  79 NE7       30.12R
STEVENS POINT  CLEAR     37  34  90 N5        30.12S WCI  33
WAUPACA        CLOUDY    44  38  82 N7        30.11S
WAUTOMA        CLOUDY    43  38  82 N7        30.11R
WISC RAPIDS    CLEAR     43  36  76 NE10      30.13R
CAMP DOUGLAS   CLOUDY    41  41 100 W3        30.11R
$$

WIZ011>013-019>022-031-037>040-048>050-211000-
NORTHEAST WISCONSIN

CITY           SKY/WX    TMP DP  RH WIND       PRES   REMARKS
ANTIGO         CLOUDY    39  35  83 N12G21    30.12R WCI  32
SHAWANO        CLOUDY    44  37  77 N8        30.11R
OCONTO         CLOUDY    42  39  88 N7        30.09R
STURGEON BAY   CLOUDY    45  37  76 N17G23    30.08R
GREEN BAY      CLOUDY    44  38  79 N13       30.09R
MANITOWOC      CLOUDY    46  40  79 N13       30.07R
APPLETON       CLOUDY    41  34  75 N12       30.09R
CLINTONVILLE   CLOUDY    41  36  81 N5        30.10S
OSHKOSH        CLOUDY    44  38  79 N12       30.08R
$$

WIZ032>034-041-042-053>061-211000-
SOUTHWEST WISCONSIN

CITY           SKY/WX    TMP DP  RH WIND       PRES   REMARKS
LA CROSSE      CLEAR     40  37  89 CALM      30.13R
SPARTA         CLEAR     30  30 100 CALM      30.13R
VIROQUA        CLEAR     37  37 100 CALM      30.10S
BOSCOBEL       CLEAR     34  32  92 CALM      30.12R FOG
PRAIRIE DU CHI CLEAR     38  36  92 CALM      30.11R
PLATTEVILLE    CLEAR     39  37  91 CALM      30.09S
$$

WIZ056-057-062-063-064-067-068-211000-
SOUTH CENTRAL WISCONSIN

CITY           SKY/WX    TMP DP  RH WIND       PRES   REMARKS
REEDSBURG      CLOUDY    46  39  78 N5        30.09S
BARABOO/DELLS  CLOUDY    47  37  70 N5        30.09S
LONE ROCK      CLEAR     41  36  82 W6        30.10R
MINERAL POINT  CLEAR     39  36  87 N3        30.09R
MADISON        CLOUDY    47  40  76 N6        30.08R
MIDDLETON      CLOUDY    48  40  74 N5        30.08S
WATERTOWN      CLOUDY    46  38  75 N6        30.07R
MONROE         MOCLDY    43  37  81 N6        30.07R
JANESVILLE     CLEAR     48  39  71 N3        30.06R
$$

WIZ051-052-058>065-066-070>072-211000-
SOUTHEAST WISCONSIN

CITY           SKY/WX    TMP DP  RH WIND       PRES   REMARKS
MILWAUKEE      MOCLDY    47  39  74 N8        30.05R
WAUKESHA       CLOUDY    43  36  75 N6        30.06S
MILWAUKEE/TIMM CLOUDY    45  37  76 N9        30.06S
RACINE         MOCLDY    46  40  79 N8        30.06R
BURLINGTON     CLOUDY    45  38  77 N6        30.05S
KENOSHA        CLOUDY    47  41  80 N7        30.05R
FOND DU LAC    CLOUDY    45  37  73 N9        30.08R
SHEBOYGAN      CLOUDY    45  39  79 N8        30.07R
WEST BEND      CLOUDY    43  36  75 N6        30.06R
JUNEAU         CLOUDY    45  37  75 N7        30.09R
$$

LSZ147-162-211000-
LAKE SUPERIOR

STATION/POSITION TIME  TEMP    WIND        PRES    WAVE
                       AIR SEA DIR/SP/G            HT/PER
                 (UTC) (F)     (DEG/KT/KT) (MB)    (FT/S)
W MID LAKE BUOY  0850   42 46   60/ 12/ 16 1022.8R   3/ 5
DEVILS ISLAND    0900   43      40/  8/  9 1023.2R
PORT WING        0840   45      70/  5/  8 1022.0S
SAXON HARBOR     0800   46      50/ 10/ 12 1021.7R
$$

LMZ867-665-643>646-211000-
LAKE MICHIGAN

STATION/POSITION TIME  TEMP    WIND        PRES    WAVE
                       AIR SEA DIR/SP/G            HT/PER
                 (UTC) (F)     (DEG/KT/KT) (MB)    (FT/S)
CHAMBERS ISLAND  0800   45     340/ 18/ 23 1017.9R
N MID LAKE BUOY  0850   46 51  360/ 21/ 25 1017.3R   4/ 5
NORTHPORT PIER   0800   46     350/ 18     1017.6R
SISTER BAY       0827          360/ 19/ 30   N/A
KEWAUNEE LAKESHO 0900   45     350/ 10/ 13 1017.2R
SHEBOYGAN LAKESH 0900   46 50  330/ 12/ 15 1018.5R
PORT WASHINGTON  0800   46     320/  5/  8 1018.3R
ATWATER BUOY     0900   48     340/ 14/ 17 1018.6R
MILWAUKEE LAKESH 0900   47     330/ 11/ 13   N/A
S MID LAKE BUOY  0850   49 54  360/ 19/ 21 1016.4R   5/ 6
KENOSHA   LAKESH 0900   49     350/ 12/ 14 1016.9S
$$

TC  - TEMPERATURE IN CELSIUS
VSB - VISIBILITY IN STATUTE MILES
WCI - WIND CHILL INDEX
HX  - HEAT INDEX



USA.gov is the U.S. government's official web portal to all federal, state and local government web resources and services.